TimeEST,TemperatureF,Dew PointF,Humidity,Sea Level PressureIn,VisibilityMPH,Wind Direction,Wind SpeedMPH,Gust SpeedMPH,PrecipitationIn,Events,Conditions,WindDirDegrees,DateUTC
12:29 AM,68.0,62.6,83,29.97,9.0,West,18.4,28.8,0.00,Rain,Light Rain,280,2013-01-31 05:29:00
12:53 AM,59.0,55.9,90,30.00,8.0,NW,19.6,28.8,0.05,Rain,Light Rain,310,2013-01-31 05:53:00
1:14 AM,59.0,55.4,88,30.00,8.0,NW,6.9,18.4,0.00,Rain,Light Rain,320,2013-01-31 06:14:00
1:47 AM,57.2,55.4,94,30.01,4.0,Variable,5.8,-,0.01,Rain,Light Rain,0,2013-01-31 06:47:00
1:53 AM,57.0,55.0,93,30.01,3.0,NW,6.9,-,0.02,Rain,Light Rain,320,2013-01-31 06:53:00
2:53 AM,57.9,55.9,93,30.00,10.0,Calm,Calm,-,0.06,,Overcast,0,2013-01-31 07:53:00
3:53 AM,57.9,55.9,93,30.02,10.0,NNW,3.5,-,0.01,,Overcast,330,2013-01-31 08:53:00
4:33 AM,59.0,57.2,94,30.02,10.0,Calm,Calm,-,0.00,,Overcast,0,2013-01-31 09:33:00
4:53 AM,59.0,55.9,90,30.02,10.0,NNW,3.5,-,0.00,,Overcast,340,2013-01-31 09:53:00
5:07 AM,59.0,57.2,94,30.02,10.0,Calm,Calm,-,N/A,,Overcast,0,2013-01-31 10:07:00
5:53 AM,59.0,55.9,90,30.04,10.0,NNW,3.5,-,N/A,,Scattered Clouds,340,2013-01-31 10:53:00
6:53 AM,57.9,53.1,84,30.07,10.0,NNW,8.1,-,N/A,,Partly Cloudy,340,2013-01-31 11:53:00
7:53 AM,55.9,48.0,75,30.11,10.0,NNW,9.2,-,N/A,,Partly Cloudy,340,2013-01-31 12:53:00
8:53 AM,57.0,45.0,64,30.14,10.0,NNW,16.1,19.6,N/A,,Partly Cloudy,340,2013-01-31 13:53:00
9:53 AM,59.0,44.1,58,30.17,10.0,NNW,15.0,-,N/A,,Partly Cloudy,330,2013-01-31 14:53:00
10:53 AM,57.9,30.9,36,30.19,10.0,NNW,17.3,-,N/A,,Scattered Clouds,330,2013-01-31 15:53:00
11:53 AM,59.0,36.0,42,30.19,10.0,North,16.1,20.7,N/A,,Scattered Clouds,350,2013-01-31 16:53:00
12:53 PM,60.1,32.0,35,30.18,10.0,NNW,16.1,19.6,N/A,,Scattered Clouds,330,2013-01-31 17:53:00
1:53 PM,60.1,28.9,31,30.17,10.0,NNW,13.8,-,N/A,,Scattered Clouds,330,2013-01-31 18:53:00
2:53 PM,61.0,28.0,29,30.18,10.0,NW,12.7,20.7,N/A,,Scattered Clouds,310,2013-01-31 19:53:00
3:53 PM,60.1,27.0,28,30.18,10.0,NNW,13.8,21.9,N/A,,Scattered Clouds,340,2013-01-31 20:53:00
4:53 PM,57.0,28.9,34,30.19,10.0,North,12.7,-,N/A,,Scattered Clouds,350,2013-01-31 21:53:00
5:53 PM,55.0,27.0,34,30.19,10.0,NNW,10.4,-,N/A,,Scattered Clouds,330,2013-01-31 22:53:00
6:53 PM,52.0,32.0,47,30.20,10.0,NW,6.9,-,N/A,,Clear,320,2013-01-31 23:53:00
7:53 PM,50.0,35.1,57,30.23,10.0,NNW,5.8,-,N/A,,Clear,330,2013-02-01 00:53:00
8:53 PM,50.0,36.0,59,30.24,10.0,Calm,Calm,-,N/A,,Clear,0,2013-02-01 01:53:00
9:53 PM,48.0,37.0,66,30.25,10.0,North,4.6,-,N/A,,Clear,350,2013-02-01 02:53:00
10:53 PM,48.0,37.9,68,30.26,10.0,North,4.6,-,N/A,,Partly Cloudy,360,2013-02-01 03:53:00
11:53 PM,48.9,39.0,69,30.26,10.0,North,6.9,-,N/A,,Clear,360,2013-02-01 04:53:00